Jersey, United Kingdom

11:38 PM GMT on February 05, 2016 (GMT +0000)
Jersey

Weather History for EGJJ - January, 2014

Change the Weather History Date:

Wednesday, January 29, 2014

  Actual Average Record
Temperature  
Mean Temperature 44 °F -  
Max Temperature 47 °F 46 °F 55 °F (2002)
Min Temperature 40 °F 39 °F 30 °F (1998)
Degree Days  
Heating Degree Days 22    
Moisture  
Dew Point 40 °F    
Average Humidity 85    
Maximum Humidity 93    
Minimum Humidity 68    
Precipitation  
Precipitation 0.00 in - - ()
Sea Level Pressure  
Sea Level Pressure 29.27 in    
Wind  
Wind Speed 5 mph ()    
Max Wind Speed 9 mph    
Max Gust Speed -    
Visibility 7.7 miles    
Events Rain    
Averages and records for this station are not official NWS values.
T = Trace of Precipitation, MM = Missing Value Source: Averaged Metar Reports

Daily Weather History Graph

Daily Weather History Graph

Search for Another Location

Airport or City:

Trip Planner

Search our weather history database for the weather conditions in past years. The results will help you decide how hot, cold, wet, or windy it might be!

Date:

Astronomy

Jan. 29, 2014 Rise Set
Actual Time 7:44 AM GMT 5:00 PM GMT
Civil Twilight 7:09 AM GMT 5:34 PM GMT
Nautical Twilight 6:31 AM GMT 6:13 PM GMT
Astronomical Twilight 5:53 AM GMT 6:50 PM GMT
Moon 6:09 AM GMT (1/29) 3:41 PM GMT (1/29)
Length of Visible Light 10h 25m
Length of Day
9h 16m
Waning Crescent, 3% of the Moon is Illuminated
Jan 29
Waning Crescent
Jan 30
New
Feb 6
First Quarter
Feb 14
Full
Feb 22
Last Quarter

Hourly Weather History & Observations

Time (GMT) Temp. Windchill Dew Point Humidity Pressure Visibility Wind Dir Wind Speed Gust Speed Precip Events Conditions
12:00 AM 44 °F - 40 °F 83% 29.13 in 22 mi South 8.1 mph - -   Partly Cloudy
1:00 AM 44 °F - 41 °F 86% 29.14 in 16 mi SSW 6.9 mph - -   Mostly Cloudy
2:00 AM 44 °F - 40 °F 82% 29.15 in 22 mi SSW 4.6 mph - -   Mostly Cloudy
3:00 AM 42 °F - 39 °F 87% 29.17 in 22 mi SSE 3.5 mph - -   Mostly Cloudy
3:50 AM 42.8 °F 41.1 °F 39.2 °F 87% 29.15 in 6.2 mi Variable 3.5 mph - N/A   Mostly Cloudy
4:00 AM 43 °F - 40 °F 85% 29.16 in 12 mi South 2.3 mph - -   Mostly Cloudy
4:20 AM 42.8 °F - 41.0 °F 93% 29.15 in 3.7 mi Variable 2.3 mph - N/A Rain Light Rain Showers
4:50 AM 42.8 °F 39.3 °F 41.0 °F 93% 29.15 in 3.1 mi NNE 5.8 mph - N/A Rain Light Rain Showers
5:00 AM 43 °F - 41 °F 91% 29.18 in 3 mi ENE 4.6 mph - - Rain Heavy Rain Showers
5:20 AM 42.8 °F 38.0 °F 39.2 °F 87% 29.15 in 6.2 mi SE 8.1 mph - N/A Rain Light Rain Showers
5:50 AM 41.0 °F 37.1 °F 39.2 °F 93% 29.18 in 6.2 mi SE 5.8 mph - N/A Rain Light Rain Showers
6:00 AM 41 °F - 39 °F 91% 29.19 in 19 mi SE 6.9 mph - - Rain Light Rain Showers
6:20 AM 42.8 °F 39.3 °F 41.0 °F 93% 29.18 in 6.2 mi SSE 5.8 mph - N/A   Mostly Cloudy
6:50 AM 41.0 °F 37.1 °F 39.2 °F 93% 29.18 in 6.2 mi SE 5.8 mph - N/A   Scattered Clouds
7:00 AM 40 °F - 39 °F 93% 29.21 in 19 mi SE 4.6 mph - - Rain Light Rain Showers
7:20 AM 42.8 °F 39.3 °F 41.0 °F 93% 29.21 in 6.2 mi SSE 5.8 mph - N/A Rain Light Rain Showers
7:50 AM 42.8 °F 41.1 °F 41.0 °F 93% 29.21 in 6.2 mi SE 3.5 mph - N/A   Mostly Cloudy
8:00 AM 42 °F - 40 °F 90% 29.23 in 16 mi SE 4.6 mph - - Rain Light Rain Showers
8:20 AM 41.0 °F 36.4 °F 39.2 °F 93% 29.21 in 6.2 mi SSE 6.9 mph - N/A   Partly Cloudy
8:50 AM 41.0 °F 35.8 °F 39.2 °F 93% 29.24 in 6.2 mi SSE 8.1 mph - N/A   Partly Cloudy
9:00 AM 41 °F - 39 °F 92% 29.25 in 16 mi SSE 6.9 mph - -   Partly Cloudy
9:20 AM 44.6 °F 42.2 °F 42.8 °F 93% 29.24 in 6.2 mi SSE 4.6 mph - N/A   Partly Cloudy
9:50 AM 46.4 °F 43.5 °F 41.0 °F 81% 29.24 in 6.2 mi South 5.8 mph - N/A   Mostly Cloudy
10:00 AM 45 °F - 42 °F 83% 29.26 in 16 mi South 5.8 mph - -   Mostly Cloudy
10:20 AM 44.6 °F 40.7 °F 41.0 °F 87% 29.27 in 6.2 mi WSW 6.9 mph - N/A Rain Light Rain Showers
10:50 AM 44.6 °F - 41.0 °F 87% 29.27 in 6.2 mi Variable 2.3 mph - N/A Rain Rain Showers
11:00 AM 44 °F - 41 °F 86% 29.28 in 5 mi WNW 1.2 mph - - Rain Heavy Rain Showers
11:20 AM 44.6 °F - 41.0 °F 87% 29.27 in 6.2 mi NNE 2.3 mph - N/A Rain Light Rain Showers
11:50 AM 44.6 °F - 41.0 °F 87% 29.27 in 6.2 mi East 2.3 mph - N/A   Partly Cloudy
12:00 PM 44 °F - 40 °F 82% 29.29 in 22 mi ENE 1.2 mph - - Rain Light Rain Showers
12:20 PM 46.4 °F 45.2 °F 41.0 °F 81% 29.27 in 6.2 mi Variable 3.5 mph - N/A   Scattered Clouds
12:50 PM 46.4 °F - 39.2 °F 76% 29.30 in 6.2 mi Variable 2.3 mph - N/A   Partly Cloudy
1:00 PM 46 °F - 40 °F 72% 29.30 in 31 mi North 4.6 mph - -   Scattered Clouds
1:20 PM 46.4 °F 43.5 °F 41.0 °F 81% 29.30 in 6.2 mi NW 5.8 mph - N/A   Partly Cloudy
1:50 PM 48.2 °F - 41.0 °F 76% 29.30 in 6.2 mi NNW 6.9 mph - N/A   Partly Cloudy
2:00 PM 47 °F - 40 °F 68% 29.31 in 31 mi NNW 6.9 mph - -   Mostly Cloudy
2:20 PM 46.4 °F 42.4 °F 39.2 °F 76% 29.30 in 6.2 mi North 8.1 mph - N/A   Partly Cloudy
2:50 PM 46.4 °F - 39.2 °F 76% 29.30 in 6.2 mi NNE 2.3 mph - N/A   Partly Cloudy
3:00 PM 46 °F - 39 °F 70% 29.32 in 31 mi North 3.5 mph - -   Partly Cloudy
3:20 PM 44.6 °F 41.4 °F 39.2 °F 81% 29.30 in 6.2 mi NW 5.8 mph - N/A   Partly Cloudy
3:50 PM 44.6 °F 42.2 °F 39.2 °F 81% 29.33 in 6.2 mi NW 4.6 mph - N/A   Partly Cloudy
4:00 PM 44 °F - 40 °F 79% 29.33 in 31 mi NW 6.9 mph - -   Scattered Clouds
4:20 PM 44.6 °F 40.7 °F 39.2 °F 81% 29.33 in 6.2 mi NW 6.9 mph - N/A   Partly Cloudy
4:50 PM 44.6 °F 39.7 °F 39.2 °F 81% 29.33 in 6.2 mi WNW 9.2 mph - N/A   Partly Cloudy
5:20 PM 42.8 °F 38.6 °F 39.2 °F 87% 29.33 in 6.2 mi WNW 6.9 mph - N/A   Partly Cloudy
5:50 PM 42.8 °F 38.6 °F 39.2 °F 87% 29.36 in 6.2 mi NNW 6.9 mph - N/A   Partly Cloudy
6:00 PM 43 °F - 38 °F 76% 29.37 in 25 mi NW 8.1 mph - -   Partly Cloudy
6:20 PM 42.8 °F 39.3 °F 39.2 °F 87% 29.36 in 6.2 mi NNW 5.8 mph - N/A   Partly Cloudy
6:50 PM 42.8 °F 39.3 °F 39.2 °F 87% 29.36 in 6.2 mi North 5.8 mph - N/A   Scattered Clouds
7:20 PM 42.8 °F 39.3 °F 39.2 °F 87% 29.39 in 6.2 mi NNW 5.8 mph - N/A   Scattered Clouds
7:50 PM 42.8 °F 39.3 °F 39.2 °F 87% 29.39 in 6.2 mi NW 5.8 mph - N/A   Mostly Cloudy
8:20 PM 42.8 °F 40.1 °F 37.4 °F 81% 29.39 in 6.2 mi NNW 4.6 mph - N/A   Partly Cloudy
8:50 PM 42.8 °F 40.1 °F 37.4 °F 81% 29.42 in 6.2 mi NNW 4.6 mph - N/A   Scattered Clouds
9:00 PM 42 °F - 37 °F 77% 29.42 in 31 mi NW 6.9 mph - -   Partly Cloudy
9:20 PM 42.8 °F 40.1 °F 37.4 °F 81% 29.42 in 6.2 mi North 4.6 mph - N/A   Scattered Clouds
11:00 PM 41 °F - 35 °F 73% 29.44 in 16 mi NW 4.6 mph - -   Mostly Cloudy